Livermore, CA

2:43 PM PDT on March 23, 2017 (GMT -0700)
Livermore Municipal

Weather History for KLVK - January, 2014

Change the Weather History Date:

Tuesday, January 7, 2014

  Actual Average Record
Temperature  
Mean Temperature 54 °F 46 °F  
Max Temperature 66 °F 56 °F 70 °F (2015)
Min Temperature 41 °F 37 °F 20 °F (1973)
Degree Days  
Heating Degree Days 11 19  
Month to date heating degree days 96 133  
Since 1 July heating degree days 947 1164  
Cooling Degree Days 0 0  
Month to date cooling degree days 0 0  
Year to date cooling degree days 0 0  
Growing Degree Days 4 (Base 50)    
Moisture  
Dew Point 38 °F    
Average Humidity 56    
Maximum Humidity 83    
Minimum Humidity 28    
Precipitation  
Precipitation 0.00 in 0.13 in 1.06 in (1993)
Month to date precipitation 0.00 0.88  
Year to date precipitation 0.00 0.88  
Since 1 July precipitation 2.38  
Sea Level Pressure  
Sea Level Pressure 30.17 in    
Wind  
Wind Speed 4 mph (West)    
Max Wind Speed 12 mph    
Max Gust Speed 14 mph    
Visibility 7 miles    
Events      
T = Trace of Precipitation, MM = Missing Value Source: NWS Daily Summary

Daily Weather History Graph

Daily Weather History Graph

Search for Another Location

Airport or City:

Trip Planner

Search our weather history database for the weather conditions in past years. The results will help you decide how hot, cold, wet, or windy it might be!

Date:

Astronomy

Jan. 07, 2014 Rise Set
Actual Time 7:22 AM PST 5:04 PM PST
Civil Twilight 6:53 AM PST 5:33 PM PST
Nautical Twilight 6:21 AM PST 6:06 PM PST
Astronomical Twilight 5:49 AM PST 6:38 PM PST
Moon 11:22 AM PST (1/7) No Moon Set
Length of Visible Light 10h 40m
Length of Day
9h 41m
Waxing Crescent, 46% of the Moon is Illuminated
Jan 7
Waxing Crescent
Jan 7
First Quarter
Jan 15
Full
Jan 23
Last Quarter
Jan 30
New

Hourly Weather History & Observations

Time (PST) Temp. Windchill Dew Point Humidity Pressure Visibility Wind Dir Wind Speed Gust Speed Precip Events Conditions
12:53 AM 48.0 °F - 37.9 °F 68% 30.18 in 6.0 mi Calm Calm - N/A   Haze
1:53 AM 42.1 °F 40.2 °F 36.0 °F 79% 30.19 in 5.0 mi NE 3.5 mph - N/A   Haze
2:53 AM 44.1 °F 42.5 °F 36.0 °F 73% 30.17 in 6.0 mi ENE 3.5 mph - N/A   Haze
3:53 AM 45.0 °F - 36.0 °F 71% 30.18 in 6.0 mi Calm Calm - N/A   Haze
4:53 AM 42.1 °F 39.2 °F 35.1 °F 76% 30.17 in 5.0 mi ENE 4.6 mph - N/A   Haze
5:53 AM 41.0 °F - 35.1 °F 79% 30.16 in 5.0 mi Calm Calm - N/A   Haze
6:53 AM 42.1 °F - 36.0 °F 79% 30.18 in 5.0 mi Calm Calm - N/A   Haze
7:53 AM 41.0 °F 39.0 °F 36.0 °F 82% 30.17 in 4.0 mi ENE 3.5 mph - N/A   Haze
8:53 AM 46.9 °F - 37.0 °F 68% 30.18 in 4.0 mi Calm Calm - N/A   Haze
9:53 AM 52.0 °F - 39.0 °F 61% 30.20 in 4.0 mi West 6.9 mph - N/A   Haze
10:53 AM 55.9 °F - 37.9 °F 51% 30.20 in 6.0 mi SW 3.5 mph - N/A   Haze
11:53 AM 57.0 °F - 35.1 °F 44% 30.18 in 7.0 mi SW 3.5 mph - N/A   Scattered Clouds
12:53 PM 61.0 °F - 37.0 °F 41% 30.15 in 7.0 mi Variable 3.5 mph - N/A   Clear
12:55 PM 62.1 °F - 37.0 °F 39% 30.15 in 7.0 mi Calm Calm - N/A   Scattered Clouds
1:53 PM 62.1 °F - 37.0 °F 39% 30.13 in 6.0 mi SSW 3.5 mph - N/A   Haze
2:53 PM 66.0 °F - 36.0 °F 33% 30.12 in 8.0 mi Calm Calm - N/A   Clear
3:53 PM 64.9 °F - 30.9 °F 28% 30.13 in 10.0 mi West 10.4 mph - N/A   Scattered Clouds
4:53 PM 60.1 °F - 34.0 °F 38% 30.14 in 10.0 mi WNW 8.1 mph - N/A   Partly Cloudy
5:53 PM 57.0 °F - 37.0 °F 47% 30.14 in 10.0 mi WNW 5.8 mph - N/A   Clear
6:53 PM 54.0 °F - 37.9 °F 55% 30.13 in 10.0 mi North 3.5 mph - N/A   Clear
7:53 PM 50.0 °F - 37.9 °F 63% 30.15 in 10.0 mi NW 4.6 mph - N/A   Clear
8:53 PM 48.9 °F - 39.0 °F 69% 30.17 in 10.0 mi SSW 3.5 mph - N/A   Clear
9:53 PM 48.9 °F - 41.0 °F 74% 30.19 in 10.0 mi SW 3.5 mph - N/A   Clear
10:17 PM 48.0 °F - 41.0 °F 77% 30.20 in 10.0 mi Calm Calm - N/A   Mostly Cloudy
10:29 PM 53.1 °F - 46.9 °F 80% 30.20 in 10.0 mi West 9.2 mph - N/A   Overcast
10:38 PM 53.1 °F - 48.9 °F 86% 30.20 in 9.0 mi West 10.4 mph - N/A   Overcast
10:53 PM 53.1 °F - 48.9 °F 86% 30.20 in 6.0 mi West 8.1 mph - N/A   Overcast
11:53 PM 52.0 °F - 48.0 °F 86% 30.20 in 6.0 mi Calm Calm - N/A   Overcast